Chamberlain, SD

9:54 PM CDT on September 20, 2017 (GMT -0500)
Chamberlain

Weather History for K9V9 - October, 2012

Change the Weather History Date:

Thursday, October 25, 2012

  Actual Average Record
Temperature  
Mean Temperature 34 °F -  
Max Temperature 35 °F 54 °F 73 °F (2007)
Min Temperature 32 °F 32 °F 18 °F (1997)
Degree Days  
Heating Degree Days 32    
Moisture  
Dew Point 27 °F    
Average Humidity 77    
Maximum Humidity 92    
Minimum Humidity 70    
Precipitation  
Precipitation 0.15 in - - ()
Sea Level Pressure  
Sea Level Pressure 30.21 in    
Wind  
Wind Speed 15 mph (NW)    
Max Wind Speed 24 mph    
Max Gust Speed 32 mph    
Averages and records for this station are not official NWS values.
T = Trace of Precipitation, MM = Missing Value Source: NWS Daily Summary

Daily Weather History Graph

Daily Weather History Graph

Search for Another Location

Airport or City:

Trip Planner

Search our weather history database for the weather conditions in past years. The results will help you decide how hot, cold, wet, or windy it might be!

Date:

Astronomy

Oct. 25, 2012 Rise Set
Actual Time 8:04 AM CDT 6:36 PM CDT
Civil Twilight 7:35 AM CDT 7:06 PM CDT
Nautical Twilight 7:01 AM CDT 7:40 PM CDT
Astronomical Twilight 6:28 AM CDT 8:13 PM CDT
Moon 4:29 PM CDT (10/25) 3:56 AM CDT (10/25)
Length of Visible Light 11h 31m
Length of Day
10h 32m
Waxing Gibbous, 84% of the Moon is Illuminated
Oct 25
Waxing Gibbous
Oct 29
Full
Nov 6
Last Quarter
Nov 13
New
Nov 20
First Quarter

Hourly Weather History & Observations

Time (CDT) Temp. Windchill Dew Point Humidity Pressure Visibility Wind Dir Wind Speed Gust Speed Precip Events Conditions
12:52 AM 33.1 °F 23.9 °F 30.9 °F 92% 30.03 in - North 12.7 mph - 0.07 in   Unknown
1:52 AM 33.1 °F 23.4 °F 30.9 °F 92% 30.03 in - North 13.8 mph - 0.07 in   Unknown
2:52 AM 34.0 °F 25.5 °F 30.0 °F 85% 30.04 in - North 11.5 mph 19.6 mph 0.01 in   Unknown
3:52 AM 34.0 °F 23.8 °F 28.9 °F 82% 30.07 in - North 16.1 mph 23.0 mph N/A   Unknown
4:52 AM 34.0 °F 24.6 °F 28.0 °F 79% 30.09 in - NNW 13.8 mph - N/A   Unknown
5:52 AM 34.0 °F 25.0 °F 28.9 °F 82% 30.11 in - NW 12.7 mph - N/A   Unknown
6:52 AM 33.1 °F 22.6 °F 28.0 °F 82% 30.11 in - NW 16.1 mph 23.0 mph N/A   Unknown
7:52 AM 33.1 °F 23.9 °F 27.0 °F 78% 30.12 in - NW 12.7 mph 23.0 mph N/A   Unknown
8:52 AM 33.1 °F 22.6 °F 27.0 °F 78% 30.16 in - NW 16.1 mph 24.2 mph N/A   Unknown
9:52 AM 32.0 °F 20.1 °F 27.0 °F 82% 30.19 in - NW 19.6 mph 25.3 mph N/A   Unknown
10:52 AM 32.0 °F 18.9 °F 26.1 °F 79% 30.20 in - NW 24.2 mph 31.1 mph N/A   Unknown
11:52 AM 33.1 °F 20.9 °F 25.0 °F 72% 30.21 in - NW 21.9 mph 32.2 mph N/A   Unknown
12:52 PM 34.0 °F 22.4 °F 26.1 °F 73% 30.22 in - NNW 20.7 mph 27.6 mph N/A   Unknown
1:52 PM 34.0 °F 24.2 °F 26.1 °F 73% 30.22 in - NNW 15.0 mph 26.5 mph N/A   Unknown
2:52 PM 35.1 °F 25.2 °F 26.1 °F 70% 30.23 in - NW 16.1 mph 24.2 mph N/A   Unknown
3:52 PM 34.0 °F 23.8 °F 27.0 °F 75% 30.25 in - WNW 16.1 mph - N/A   Unknown
4:52 PM 34.0 °F 24.2 °F 26.1 °F 73% 30.27 in - WNW 15.0 mph 23.0 mph N/A   Unknown
5:52 PM 34.0 °F 25.0 °F 27.0 °F 75% 30.30 in - WNW 12.7 mph - N/A   Unknown
6:52 PM 34.0 °F 24.6 °F 27.0 °F 75% 30.31 in - WNW 13.8 mph - N/A   Unknown
7:52 PM 34.0 °F 25.5 °F 27.0 °F 75% 30.34 in - WNW 11.5 mph - N/A   Unknown
8:52 PM 35.1 °F 25.9 °F 26.1 °F 70% 30.36 in - WNW 13.8 mph - N/A   Unknown
9:52 PM 34.0 °F 25.0 °F 26.1 °F 73% 30.38 in - NW 12.7 mph - N/A   Unknown
10:52 PM 34.0 °F 25.5 °F 26.1 °F 73% 30.39 in - WNW 11.5 mph 19.6 mph N/A   Unknown
11:52 PM 34.0 °F 25.0 °F 25.0 °F 70% 30.40 in - WNW 12.7 mph - N/A   Unknown